• en Belgique
  • Liste des pays
  • À 7 jours
  • Température de l'eau
  • Carte satellitaire
  • Carte météo
  • Widgets météo
  • user-avatar
    Se connecter

    Météo par heure à Annaba

    Ce jour, 24 Janvier, Mercredi

    Heure Température Précipitation Vent Pression Humidité
    00:00 +11°C° 0 mm 3 m/s 769 mmHg 90%
    01:00 +11°C° 0 mm 3 m/s 769 mmHg 89%
    02:00 +10°C° 0 mm 3 m/s 769 mmHg 89%
    03:00 +10°C° 0 mm 3 m/s 769 mmHg 89%
    04:00 +10°C° 0 mm 2 m/s 769 mmHg 89%
    05:00 +10°C° 0 mm 2 m/s 769 mmHg 88%
    06:00 +10°C° 0 mm 2 m/s 769 mmHg 87%
    07:00 +9°C° 0 mm 2 m/s 769 mmHg 87%
    08:00 +12°C° 0 mm 2 m/s 769 mmHg 81%
    09:00 +13°C° 0 mm 2 m/s 770 mmHg 75%
    10:00 +15°C° 0 mm 2 m/s 770 mmHg 69%
    11:00 +16°C° 0 mm 2 m/s 769 mmHg 63%
    12:00 +18°C° 0 mm 1 m/s 769 mmHg 58%
    13:00 +20°C° 0 mm 1 m/s 769 mmHg 53%
    14:00 +20°C° 0 mm 1 m/s 769 mmHg 54%
    15:00 +19°C° 0 mm 2 m/s 769 mmHg 54%
    16:00 +19°C° 0 mm 2 m/s 768 mmHg 55%
    17:00 +17°C° 0 mm 2 m/s 768 mmHg 64%
    18:00 +15°C° 0 mm 2 m/s 768 mmHg 73%
    19:00 +12°C° 0 mm 3 m/s 769 mmHg 82%
    20:00 +12°C° 0 mm 3 m/s 769 mmHg 80%
    21:00 +13°C° 0 mm 2 m/s 769 mmHg 79%
    22:00 +13°C° 0 mm 2 m/s 769 mmHg 78%
    23:00 +12°C° 0 mm 2 m/s 769 mmHg 76%

    Demain, 25 Janvier, Jeudi

    Heure Température Précipitation Vent Pression Humidité
    00:00 +12°C° 0 mm 2 m/s 769 mmHg 75%
    01:00 +12°C° 0 mm 2 m/s 768 mmHg 73%
    02:00 +12°C° 0 mm 2 m/s 768 mmHg 71%
    03:00 +12°C° 0 mm 2 m/s 768 mmHg 68%
    04:00 +12°C° 0 mm 2 m/s 768 mmHg 66%
    05:00 +10°C° 0 mm 2 m/s 767 mmHg 64%
    06:00 +10°C° 0 mm 3 m/s 767 mmHg 61%
    07:00 +10°C° 0 mm 3 m/s 767 mmHg 59%
    08:00 +12°C° 0 mm 3 m/s 767 mmHg 55%
    09:00 +13°C° 0 mm 3 m/s 767 mmHg 52%
    10:00 +16°C° 0 mm 3 m/s 767 mmHg 49%
    11:00 +18°C° 0 mm 2 m/s 766 mmHg 46%
    12:00 +19°C° 0 mm 2 m/s 765 mmHg 42%
    13:00 +21°C° 0 mm 2 m/s 765 mmHg 38%
    14:00 +21°C° 0 mm 2 m/s 764 mmHg 39%
    15:00 +21°C° 0 mm 2 m/s 764 mmHg 39%
    16:00 +21°C° 0 mm 2 m/s 763 mmHg 40%
    17:00 +19°C° 0 mm 2 m/s 763 mmHg 45%
    18:00 +17°C° 0 mm 2 m/s 763 mmHg 49%
    19:00 +15°C° 0 mm 2 m/s 763 mmHg 54%
    20:00 +15°C° 0 mm 2 m/s 763 mmHg 55%
    21:00 +14°C° 0 mm 2 m/s 763 mmHg 56%
    22:00 +14°C° 0 mm 2 m/s 763 mmHg 57%
    23:00 +13°C° 0 mm 3 m/s 763 mmHg 58%

    Après-demain, 26 Janvier, Vendredi

    Heure Température Précipitation Vent Pression Humidité
    00:00 +12°C° 0 mm 3 m/s 763 mmHg 60%
    01:00 +12°C° 0 mm 3 m/s 762 mmHg 62%
    02:00 +12°C° 0 mm 3 m/s 762 mmHg 63%
    03:00 +11°C° 0 mm 3 m/s 762 mmHg 65%
    04:00 +11°C° 0 mm 3 m/s 761 mmHg 66%
    05:00 +11°C° 0 mm 3 m/s 761 mmHg 67%
    06:00 +11°C° 0 mm 3 m/s 761 mmHg 67%
    07:00 +11°C° 0 mm 3 m/s 761 mmHg 68%
    08:00 +12°C° 0 mm 3 m/s 761 mmHg 65%
    09:00 +14°C° 0 mm 3 m/s 761 mmHg 61%
    10:00 +16°C° 0 mm 2 m/s 761 mmHg 58%
    11:00 +18°C° 0 mm 2 m/s 761 mmHg 54%
    12:00 +19°C° 0 mm 2 m/s 760 mmHg 49%
    13:00 +22°C° 0 mm 1 m/s 760 mmHg 45%
    14:00 +20°C° 0,1 mm 3 m/s 760 mmHg 49%
    15:00 +19°C° 0,1 mm 4 m/s 760 mmHg 53%
    16:00 +19°C° 0,1 mm 6 m/s 760 mmHg 57%
    17:00 +16°C° 0,4 mm 6 m/s 761 mmHg 68%
    18:00 +12°C° 0,4 mm 7 m/s 761 mmHg 78%
    19:00 +10°C° 0,4 mm 7 m/s 762 mmHg 89%
    20:00 +10°C° 0,4 mm 6 m/s 762 mmHg 89%
    21:00 +10°C° 0,4 mm 6 m/s 763 mmHg 88%
    22:00 +9°C° 0,4 mm 5 m/s 763 mmHg 88%
    23:00 +9°C° 0,3 mm 5 m/s 763 mmHg 88%

    27 Janvier, Samedi

    Heure Température Précipitation Vent Pression Humidité
    00:00 +9°C° 0,3 mm 5 m/s 763 mmHg 88%
    01:00 +9°C° 0,3 mm 5 m/s 763 mmHg 88%
    02:00 +9°C° 0,8 mm 5 m/s 763 mmHg 88%
    03:00 +8°C° 0,8 mm 4 m/s 762 mmHg 88%
    04:00 +8°C° 0,8 mm 4 m/s 762 mmHg 88%
    05:00 +8°C° 0,7 mm 4 m/s 762 mmHg 88%
    06:00 +9°C° 0,7 mm 3 m/s 762 mmHg 88%
    07:00 +8°C° 0,7 mm 3 m/s 762 mmHg 88%
    08:00 +8°C° 1,1 mm 3 m/s 762 mmHg 88%
    09:00 +9°C° 1,1 mm 3 m/s 762 mmHg 89%
    10:00 +9°C° 1,1 mm 3 m/s 762 mmHg 89%
    11:00 +9°C° 2,1 mm 3 m/s 762 mmHg 90%
    12:00 +9°C° 2,1 mm 3 m/s 762 mmHg 92%
    13:00 +9°C° 2,1 mm 3 m/s 762 mmHg 93%
    14:00 +8°C° 2,1 mm 4 m/s 761 mmHg 93%
    15:00 +8°C° 2,1 mm 4 m/s 761 mmHg 92%
    16:00 +8°C° 2,1 mm 5 m/s 761 mmHg 92%
    17:00 +8°C° 1,5 mm 5 m/s 761 mmHg 92%
    18:00 +8°C° 1,5 mm 5 m/s 761 mmHg 92%
    19:00 +8°C° 1,5 mm 5 m/s 762 mmHg 91%
    20:00 +8°C° 1,2 mm 5 m/s 762 mmHg 91%
    21:00 +8°C° 1,2 mm 6 m/s 762 mmHg 91%
    22:00 +8°C° 1,2 mm 6 m/s 762 mmHg 91%
    23:00 +8°C° 1,1 mm 6 m/s 762 mmHg 91%

    28 Janvier, Dimanche

    Heure Température Précipitation Vent Pression Humidité
    00:00 +8°C° 1,1 mm 6 m/s 762 mmHg 92%
    01:00 +8°C° 1,1 mm 6 m/s 762 mmHg 92%
    02:00 +8°C° 0,3 mm 6 m/s 762 mmHg 91%
    03:00 +8°C° 0,3 mm 6 m/s 762 mmHg 90%
    04:00 +8°C° 0,3 mm 6 m/s 762 mmHg 90%
    05:00 +7°C° 0,2 mm 6 m/s 763 mmHg 90%
    06:00 +7°C° 0,2 mm 6 m/s 763 mmHg 89%
    07:00 +6°C° 0,2 mm 5 m/s 764 mmHg 89%
    08:00 +7°C° 0 mm 5 m/s 764 mmHg 85%
    09:00 +8°C° 0 mm 5 m/s 765 mmHg 80%
    10:00 +10°C° 0 mm 4 m/s 766 mmHg 76%
    11:00 +12°C° 0 mm 4 m/s 766 mmHg 70%
    12:00 +13°C° 0 mm 3 m/s 766 mmHg 63%
    13:00 +15°C° 0 mm 2 m/s 766 mmHg 57%
    14:00 +15°C° 0 mm 2 m/s 766 mmHg 57%
    15:00 +15°C° 0 mm 2 m/s 766 mmHg 57%
    16:00 +14°C° 0 mm 3 m/s 766 mmHg 57%
    17:00 +13°C° 0 mm 3 m/s 767 mmHg 65%
    18:00 +11°C° 0 mm 4 m/s 767 mmHg 72%
    19:00 +10°C° 0 mm 4 m/s 768 mmHg 80%
    20:00 +10°C° 0,1 mm 4 m/s 768 mmHg 81%
    21:00 +10°C° 0,1 mm 4 m/s 768 mmHg 83%
    22:00 +9°C° 0,1 mm 3 m/s 769 mmHg 84%
    23:00 +9°C° 0 mm 3 m/s 769 mmHg 83%

    29 Janvier, Lundi

    Heure Température Précipitation Vent Pression Humidité
    00:00 +9°C° 0 mm 3 m/s 769 mmHg 82%
    01:00 +9°C° 0 mm 2 m/s 769 mmHg 81%
    02:00 +9°C° 0,4 mm 2 m/s 769 mmHg 83%
    03:00 +9°C° 0,4 mm 2 m/s 769 mmHg 85%
    04:00 +9°C° 0,4 mm 2 m/s 769 mmHg 88%
    05:00 +9°C° 0,3 mm 2 m/s 769 mmHg 89%
    06:00 +9°C° 0,3 mm 2 m/s 769 mmHg 90%
    07:00 +9°C° 0,3 mm 1 m/s 769 mmHg 91%
    08:00 +9°C° 0,3 mm 2 m/s 769 mmHg 90%
    09:00 +10°C° 0,3 mm 3 m/s 770 mmHg 89%
    10:00 +10°C° 0,3 mm 3 m/s 770 mmHg 89%
    11:00 +11°C° 0,4 mm 3 m/s 769 mmHg 88%
    12:00 +11°C° 0,4 mm 4 m/s 769 mmHg 88%
    13:00 +12°C° 0,4 mm 4 m/s 769 mmHg 88%
    14:00 +12°C° 0,7 mm 4 m/s 768 mmHg 90%
    15:00 +12°C° 0,7 mm 4 m/s 768 mmHg 92%
    16:00 +12°C° 0,7 mm 4 m/s 767 mmHg 94%
    17:00 +12°C° 0,6 mm 4 m/s 768 mmHg 94%
    18:00 +11°C° 0,6 mm 4 m/s 768 mmHg 95%
    19:00 +11°C° 0,6 mm 4 m/s 768 mmHg 95%
    20:00 +11°C° 0,7 mm 4 m/s 768 mmHg 95%
    21:00 +11°C° 0,7 mm 4 m/s 768 mmHg 95%
    22:00 +10°C° 0,7 mm 4 m/s 768 mmHg 95%
    23:00 +10°C° 0,3 mm 4 m/s 768 mmHg 94%
    Voir plus